Time,TemperatureF,DewpointF,PressureIn,WindDirection,WindDirectionDegrees,WindSpeedMPH,WindSpeedGustMPH,Humidity,HourlyPrecipIn,Conditions,Clouds,dailyrainin,SoftwareType,DateUTC
2013-09-02 00:00:00,62.6,59.4,29.81,NNW,333,0.0,4.0,89,0.00,,,0.02,meteohub,2013-09-02 05:00:00,
2013-09-02 00:06:00,62.6,59.0,29.81,NNW,333,0.0,2.0,88,0.00,,,0.00,meteohub,2013-09-02 05:06:00,
2013-09-02 00:11:00,62.8,59.2,29.81,NNW,333,0.0,2.0,88,0.00,,,0.00,meteohub,2013-09-02 05:11:00,
2013-09-02 00:16:00,62.6,59.0,29.81,NNW,333,0.0,2.0,88,0.00,,,0.00,meteohub,2013-09-02 05:16:00,
2013-09-02 00:21:00,62.6,59.0,29.81,NNW,333,0.0,0.0,88,0.00,,,0.00,meteohub,2013-09-02 05:21:00,
2013-09-02 00:26:00,62.6,59.0,29.81,NNW,333,0.0,0.0,88,0.00,,,0.00,meteohub,2013-09-02 05:26:00,
2013-09-02 00:32:00,62.6,59.0,29.81,NNW,333,0.0,1.0,88,0.00,,,0.00,meteohub,2013-09-02 05:32:00,
2013-09-02 00:37:00,62.4,58.8,29.81,NNW,333,0.0,1.0,88,0.00,,,0.00,meteohub,2013-09-02 05:37:00,
2013-09-02 00:42:00,62.2,58.6,29.81,NNW,333,0.0,1.0,88,0.00,,,0.00,meteohub,2013-09-02 05:42:00,
2013-09-02 00:47:00,62.1,58.1,29.81,NNW,333,0.0,0.0,87,0.00,,,0.00,meteohub,2013-09-02 05:47:00,
2013-09-02 00:52:00,61.5,57.6,29.81,NNW,333,0.0,0.0,87,0.00,,,0.00,meteohub,2013-09-02 05:52:00,
2013-09-02 00:57:00,61.3,57.7,29.81,NNW,333,0.0,0.0,88,0.00,,,0.00,meteohub,2013-09-02 05:57:00,
2013-09-02 01:02:00,61.0,57.4,29.82,NNW,333,0.0,0.0,88,0.00,,,0.00,meteohub,2013-09-02 06:02:00,
2013-09-02 01:07:00,61.0,57.7,29.82,NNW,333,0.0,1.0,89,0.00,,,0.00,meteohub,2013-09-02 06:07:00,
2013-09-02 01:12:00,60.6,57.4,29.82,NNW,333,0.0,1.0,89,0.00,,,0.00,meteohub,2013-09-02 06:12:00,
2013-09-02 01:17:00,60.4,57.2,29.82,NNW,333,0.0,1.0,89,0.00,,,0.00,meteohub,2013-09-02 06:17:00,
2013-09-02 01:22:00,60.3,57.4,29.82,NNW,333,0.0,1.0,90,0.00,,,0.00,meteohub,2013-09-02 06:22:00,
2013-09-02 01:27:00,60.4,57.7,29.82,NNW,333,0.0,1.0,91,0.00,,,0.00,meteohub,2013-09-02 06:27:00,
2013-09-02 01:32:00,60.4,57.7,29.82,NNW,333,0.0,1.0,91,0.00,,,0.00,meteohub,2013-09-02 06:32:00,
2013-09-02 01:37:00,60.6,57.9,29.82,NNW,333,0.0,1.0,91,0.00,,,0.00,meteohub,2013-09-02 06:37:00,
2013-09-02 01:42:00,60.6,58.3,29.82,NNW,333,0.0,0.0,92,0.00,,,0.00,meteohub,2013-09-02 06:42:00,
2013-09-02 01:47:00,60.6,58.3,29.83,NNW,333,0.0,1.0,92,0.00,,,0.00,meteohub,2013-09-02 06:47:00,
2013-09-02 01:52:00,60.6,58.3,29.83,NNW,333,0.0,1.0,92,0.00,,,0.00,meteohub,2013-09-02 06:52:00,
2013-09-02 01:57:00,60.6,57.9,29.83,NNW,333,0.0,1.0,91,0.00,,,0.00,meteohub,2013-09-02 06:57:00,
2013-09-02 02:02:00,60.3,57.6,29.83,NNW,333,0.0,1.0,91,0.00,,,0.00,meteohub,2013-09-02 07:02:00,
2013-09-02 02:07:00,60.1,57.4,29.83,NNW,333,0.0,1.0,91,0.00,,,0.00,meteohub,2013-09-02 07:07:00,
2013-09-02 02:12:00,60.1,57.7,29.83,NNW,333,0.0,1.0,92,0.00,,,0.00,meteohub,2013-09-02 07:12:00,
2013-09-02 02:17:00,60.6,58.6,29.83,NNW,333,0.0,1.0,93,0.00,,,0.00,meteohub,2013-09-02 07:17:00,
2013-09-02 02:22:00,60.6,58.3,29.83,NNW,333,1.0,3.0,92,0.00,,,0.00,meteohub,2013-09-02 07:22:00,
2013-09-02 02:27:00,60.8,58.5,29.84,NNW,333,1.0,3.0,92,0.00,,,0.00,meteohub,2013-09-02 07:27:00,
2013-09-02 02:33:00,61.0,58.6,29.84,NNW,333,3.0,3.0,92,0.00,,,0.00,meteohub,2013-09-02 07:33:00,
2013-09-02 02:38:00,61.2,58.8,29.84,NNW,333,3.0,5.0,92,0.00,,,0.00,meteohub,2013-09-02 07:38:00,
2013-09-02 02:43:00,61.3,59.0,29.84,NNW,333,4.0,5.0,92,0.00,,,0.00,meteohub,2013-09-02 07:43:00,
2013-09-02 02:48:00,61.5,59.2,29.84,NNW,333,3.0,5.0,92,0.00,,,0.00,meteohub,2013-09-02 07:48:00,
2013-09-02 02:53:00,61.5,59.2,29.84,NNW,333,3.0,5.0,92,0.00,,,0.00,meteohub,2013-09-02 07:53:00,
2013-09-02 02:58:00,61.5,59.2,29.84,NNW,333,3.0,5.0,92,0.00,,,0.00,meteohub,2013-09-02 07:58:00,
2013-09-02 03:03:00,61.3,59.0,29.84,NNW,333,1.0,5.0,92,0.00,,,0.00,meteohub,2013-09-02 08:03:00,
2013-09-02 03:09:00,61.3,59.0,29.84,NNW,336,4.0,4.0,92,0.00,,,0.00,meteohub,2013-09-02 08:09:00,
2013-09-02 03:14:00,61.3,59.0,29.84,NNW,336,4.0,5.0,92,0.00,,,0.00,meteohub,2013-09-02 08:14:00,
2013-09-02 03:19:00,61.3,59.0,29.85,NNW,337,1.0,5.0,92,0.00,,,0.00,meteohub,2013-09-02 08:19:00,
2013-09-02 03:24:00,61.3,59.0,29.85,NNW,337,0.0,5.0,92,0.00,,,0.00,meteohub,2013-09-02 08:24:00,
2013-09-02 03:29:00,61.3,59.0,29.85,NNW,337,0.0,4.0,92,0.00,,,0.00,meteohub,2013-09-02 08:29:00,
2013-09-02 03:34:00,61.0,58.6,29.85,NNW,337,0.0,4.0,92,0.00,,,0.00,meteohub,2013-09-02 08:34:00,
2013-09-02 03:40:00,60.8,58.5,29.85,NNW,337,0.0,4.0,92,0.00,,,0.00,meteohub,2013-09-02 08:40:00,
2013-09-02 03:45:00,60.6,58.3,29.85,NNW,337,0.0,2.0,92,0.00,,,0.00,meteohub,2013-09-02 08:45:00,
2013-09-02 03:50:00,60.6,58.3,29.85,NNW,337,0.0,1.0,92,0.00,,,0.00,meteohub,2013-09-02 08:50:00,
2013-09-02 03:55:00,60.6,58.6,29.86,NNW,337,1.0,2.0,93,0.00,,,0.00,meteohub,2013-09-02 08:55:00,
2013-09-02 04:00:00,61.0,59.0,29.86,NNW,337,0.0,2.0,93,0.00,,,0.00,meteohub,2013-09-02 09:00:00,
2013-09-02 04:05:00,61.2,59.4,29.86,NNW,337,0.0,3.0,94,0.00,,,0.00,meteohub,2013-09-02 09:05:00,
2013-09-02 04:10:00,61.3,59.5,29.86,NNW,336,1.0,4.0,94,0.00,,,0.00,meteohub,2013-09-02 09:10:00,
2013-09-02 04:16:00,61.5,59.7,29.86,NNW,336,0.0,4.0,94,0.00,,,0.00,meteohub,2013-09-02 09:16:00,
2013-09-02 04:21:00,61.5,59.7,29.86,NNW,336,0.0,4.0,94,0.00,,,0.00,meteohub,2013-09-02 09:21:00,
2013-09-02 04:26:00,61.5,59.5,29.86,NNW,336,0.0,3.0,93,0.00,,,0.00,meteohub,2013-09-02 09:26:00,
2013-09-02 04:31:00,61.3,59.4,29.86,NNW,336,0.0,2.0,93,0.00,,,0.00,meteohub,2013-09-02 09:31:00,
2013-09-02 04:36:00,61.2,59.2,29.86,NNW,336,0.0,3.0,93,0.00,,,0.00,meteohub,2013-09-02 09:36:00,
2013-09-02 04:41:00,61.0,59.0,29.86,NNW,336,1.0,3.0,93,0.00,,,0.00,meteohub,2013-09-02 09:41:00,
2013-09-02 04:46:00,60.6,58.6,29.86,NNW,336,1.0,4.0,93,0.00,,,0.00,meteohub,2013-09-02 09:46:00,
2013-09-02 04:52:00,60.6,58.6,29.86,NNW,336,2.0,4.0,93,0.00,,,0.00,meteohub,2013-09-02 09:52:00,
2013-09-02 04:57:00,60.4,58.5,29.86,NNW,336,0.0,4.0,93,0.00,,,0.00,meteohub,2013-09-02 09:57:00,
2013-09-02 05:02:00,60.3,58.3,29.86,NNW,336,1.0,3.0,93,0.00,,,0.00,meteohub,2013-09-02 10:02:00,
2013-09-02 05:07:00,60.3,58.5,29.86,NNW,336,0.0,3.0,94,0.00,,,0.00,meteohub,2013-09-02 10:07:00,
2013-09-02 05:12:00,60.1,58.3,29.86,NNW,336,0.0,2.0,94,0.00,,,0.00,meteohub,2013-09-02 10:12:00,
2013-09-02 05:17:00,59.7,57.7,29.87,NNW,336,0.0,1.0,93,0.00,,,0.00,meteohub,2013-09-02 10:17:00,
2013-09-02 05:22:00,59.5,57.6,29.87,NNW,336,0.0,1.0,93,0.00,,,0.00,meteohub,2013-09-02 10:22:00,
2013-09-02 05:27:00,59.4,57.4,29.87,NNW,336,0.0,1.0,93,0.00,,,0.00,meteohub,2013-09-02 10:27:00,
2013-09-02 05:32:00,59.2,57.2,29.87,NNW,336,0.0,0.0,93,0.00,,,0.00,meteohub,2013-09-02 10:32:00,
2013-09-02 05:37:00,58.8,56.8,29.88,NNW,336,0.0,0.0,93,0.00,,,0.00,meteohub,2013-09-02 10:37:00,
2013-09-02 05:42:00,58.6,56.7,29.88,NNW,336,0.0,0.0,93,0.00,,,0.00,meteohub,2013-09-02 10:42:00,
2013-09-02 05:47:00,58.5,56.5,29.88,NNW,336,0.0,0.0,93,0.00,,,0.00,meteohub,2013-09-02 10:47:00,
2013-09-02 05:52:00,58.3,56.3,29.88,NNW,336,0.0,0.0,93,0.00,,,0.00,meteohub,2013-09-02 10:52:00,
2013-09-02 05:57:00,58.5,56.7,29.88,NNW,336,0.0,0.0,94,0.00,,,0.00,meteohub,2013-09-02 10:57:00,
2013-09-02 06:02:00,58.5,56.7,29.88,NNW,336,0.0,0.0,94,0.00,,,0.00,meteohub,2013-09-02 11:02:00,
2013-09-02 06:07:00,58.5,56.7,29.88,NNW,336,0.0,0.0,94,0.00,,,0.00,meteohub,2013-09-02 11:07:00,
2013-09-02 06:12:00,58.6,56.8,29.89,NNW,336,0.0,0.0,94,0.00,,,0.00,meteohub,2013-09-02 11:12:00,
2013-09-02 06:17:00,58.8,57.4,29.89,NNW,336,0.0,1.0,95,0.00,,,0.00,meteohub,2013-09-02 11:17:00,
2013-09-02 06:22:00,58.8,57.4,29.89,NNW,336,0.0,1.0,95,0.00,,,0.00,meteohub,2013-09-02 11:22:00,
2013-09-02 06:27:00,59.0,57.6,29.89,NNW,336,0.0,1.0,95,0.00,,,0.00,meteohub,2013-09-02 11:27:00,
2013-09-02 06:32:00,59.0,57.6,29.89,NNW,336,0.0,1.0,95,0.00,,,0.00,meteohub,2013-09-02 11:32:00,
2013-09-02 06:37:00,59.2,57.7,29.89,NNW,336,0.0,1.0,95,0.00,,,0.00,meteohub,2013-09-02 11:37:00,
2013-09-02 06:42:00,59.4,57.9,29.89,NNW,336,0.0,1.0,95,0.00,,,0.00,meteohub,2013-09-02 11:42:00,
2013-09-02 06:47:00,59.4,57.9,29.89,NNW,336,0.0,2.0,95,0.00,,,0.00,meteohub,2013-09-02 11:47:00,
2013-09-02 06:52:00,59.4,57.9,29.90,NNW,336,0.0,4.0,95,0.00,,,0.00,meteohub,2013-09-02 11:52:00,
2013-09-02 06:57:00,59.2,57.7,29.90,NNW,335,1.0,4.0,95,0.00,,,0.00,meteohub,2013-09-02 11:57:00,
2013-09-02 07:02:00,59.2,57.7,29.90,NNW,335,0.0,4.0,95,0.00,,,0.00,meteohub,2013-09-02 12:02:00,
2013-09-02 07:07:00,59.2,57.7,29.90,NNW,335,0.0,4.0,95,0.00,,,0.00,meteohub,2013-09-02 12:07:00,
2013-09-02 07:12:00,59.2,57.7,29.91,NNW,335,0.0,4.0,95,0.00,,,0.00,meteohub,2013-09-02 12:12:00,
2013-09-02 07:17:00,59.4,57.9,29.91,NNW,333,4.0,4.0,95,0.00,,,0.00,meteohub,2013-09-02 12:17:00,
2013-09-02 07:22:00,59.7,58.3,29.91,NNW,331,3.0,6.0,95,0.00,,,0.00,meteohub,2013-09-02 12:22:00,
2013-09-02 07:27:00,60.1,58.6,29.91,NW,306,1.0,7.0,95,0.00,,,0.00,meteohub,2013-09-02 12:27:00,
2013-09-02 07:32:00,60.3,58.8,29.91,NW,322,6.0,7.0,95,0.00,,,0.00,meteohub,2013-09-02 12:32:00,
2013-09-02 07:37:00,60.3,58.5,29.91,NNW,329,2.0,7.0,94,0.00,,,0.00,meteohub,2013-09-02 12:37:00,
2013-09-02 07:42:00,60.4,58.6,29.91,NNW,333,3.0,8.0,94,0.00,,,0.00,meteohub,2013-09-02 12:42:00,
2013-09-02 07:47:00,60.6,58.8,29.91,NNW,330,5.0,8.0,94,0.00,,,0.00,meteohub,2013-09-02 12:47:00,
2013-09-02 07:52:00,61.0,59.2,29.91,NNW,334,5.0,8.0,94,0.00,,,0.00,meteohub,2013-09-02 12:52:00,
2013-09-02 07:57:00,61.3,59.4,29.91,NNW,333,6.0,9.0,93,0.00,,,0.00,meteohub,2013-09-02 12:57:00,
2013-09-02 08:02:00,61.3,59.0,29.92,NNW,329,4.0,10.0,92,0.00,,,0.00,meteohub,2013-09-02 13:02:00,
2013-09-02 08:07:00,61.3,59.0,29.92,WNW,300,6.0,10.0,92,0.00,,,0.00,meteohub,2013-09-02 13:07:00,
2013-09-02 08:12:00,61.5,58.8,29.92,NNW,348,6.0,10.0,91,0.00,,,0.00,meteohub,2013-09-02 13:12:00,
2013-09-02 08:17:00,62.1,59.2,29.92,North,350,6.0,10.0,90,0.00,,,0.00,meteohub,2013-09-02 13:17:00,
2013-09-02 08:23:00,62.4,58.8,29.92,NNW,329,4.0,10.0,88,0.00,,,0.00,meteohub,2013-09-02 13:23:00,
2013-09-02 08:28:00,62.8,58.8,29.92,WNW,286,3.0,10.0,87,0.00,,,0.00,meteohub,2013-09-02 13:28:00,
2013-09-02 08:33:00,62.6,58.1,29.92,NNW,347,4.0,10.0,85,0.00,,,0.00,meteohub,2013-09-02 13:33:00,
2013-09-02 08:38:00,63.0,58.6,29.92,NNW,344,8.0,10.0,86,0.00,,,0.00,meteohub,2013-09-02 13:38:00,
2013-09-02 08:43:00,63.3,58.8,29.92,NNW,344,7.0,9.0,85,0.00,,,0.00,meteohub,2013-09-02 13:43:00,
2013-09-02 08:48:00,63.3,58.8,29.92,NNW,343,6.0,9.0,85,0.00,,,0.00,meteohub,2013-09-02 13:48:00,
2013-09-02 08:54:00,63.5,57.6,29.92,North,350,6.0,9.0,81,0.00,,,0.00,meteohub,2013-09-02 13:54:00,
2013-09-02 08:59:00,63.3,57.4,29.92,NNW,327,7.0,9.0,81,0.00,,,0.00,meteohub,2013-09-02 13:59:00,
2013-09-02 09:04:00,63.9,57.9,29.92,North,355,8.0,10.0,81,0.00,,,0.00,meteohub,2013-09-02 14:04:00,
2013-09-02 09:09:00,64.2,57.9,29.92,North,5,4.0,11.0,80,0.00,,,0.00,meteohub,2013-09-02 14:09:00,
2013-09-02 09:14:00,64.9,59.0,29.93,WNW,300,3.0,11.0,81,0.00,,,0.00,meteohub,2013-09-02 14:14:00,
2013-09-02 09:19:00,64.9,57.6,29.93,NNW,334,8.0,11.0,77,0.00,,,0.00,meteohub,2013-09-02 14:19:00,
2013-09-02 09:24:00,64.6,57.2,29.93,NNW,343,6.0,11.0,77,0.00,,,0.00,meteohub,2013-09-02 14:24:00,
2013-09-02 09:30:00,64.2,57.2,29.93,NNW,348,5.0,11.0,78,0.00,,,0.00,meteohub,2013-09-02 14:30:00,
2013-09-02 09:35:00,64.0,56.7,29.94,North,351,5.0,13.0,77,0.00,,,0.00,meteohub,2013-09-02 14:35:00,
2013-09-02 09:40:00,64.6,57.6,29.94,NNW,341,4.0,13.0,78,0.00,,,0.00,meteohub,2013-09-02 14:40:00,
2013-09-02 09:45:00,64.6,57.2,29.94,North,355,6.0,13.0,77,0.00,,,0.00,meteohub,2013-09-02 14:45:00,
2013-09-02 09:50:00,64.8,57.4,29.94,NNW,334,7.0,12.0,77,0.00,,,0.00,meteohub,2013-09-02 14:50:00,
2013-09-02 09:55:00,64.9,56.8,29.94,NNW,331,8.0,11.0,75,0.00,,,0.00,meteohub,2013-09-02 14:55:00,
2013-09-02 10:01:00,65.1,56.7,29.94,NNW,327,6.0,10.0,74,0.00,,,0.00,meteohub,2013-09-02 15:01:00,
2013-09-02 10:06:00,64.9,56.5,29.94,NW,318,6.0,11.0,74,0.00,,,0.00,meteohub,2013-09-02 15:06:00,
2013-09-02 10:11:00,64.2,56.1,29.94,North,355,6.0,11.0,75,0.00,,,0.00,meteohub,2013-09-02 15:11:00,
2013-09-02 10:16:00,63.9,56.5,29.94,NNW,333,4.0,11.0,77,0.00,,,0.00,meteohub,2013-09-02 15:16:00,
2013-09-02 10:21:00,63.7,56.3,29.94,NNW,332,3.0,10.0,77,0.00,,,0.00,meteohub,2013-09-02 15:21:00,
2013-09-02 10:26:00,64.2,57.9,29.94,NNW,338,4.0,10.0,80,0.00,,,0.00,meteohub,2013-09-02 15:26:00,
2013-09-02 10:32:00,64.6,57.9,29.94,NNW,346,8.0,9.0,79,0.00,,,0.00,meteohub,2013-09-02 15:32:00,
2013-09-02 10:37:00,64.6,57.6,29.94,North,0,5.0,8.0,78,0.00,,,0.00,meteohub,2013-09-02 15:37:00,
2013-09-02 10:42:00,64.6,57.6,29.94,NNW,342,5.0,9.0,78,0.00,,,0.00,meteohub,2013-09-02 15:42:00,
2013-09-02 10:47:00,64.2,56.8,29.94,North,355,9.0,10.0,77,0.00,,,0.00,meteohub,2013-09-02 15:47:00,
2013-09-02 10:52:00,64.6,57.6,29.94,North,355,5.0,11.0,78,0.00,,,0.00,meteohub,2013-09-02 15:52:00,
2013-09-02 10:57:00,64.2,56.5,29.95,NNW,340,6.0,11.0,76,0.00,,,0.00,meteohub,2013-09-02 15:57:00,
2013-09-02 11:02:00,63.9,56.8,29.95,NNW,331,5.0,11.0,78,0.00,,,0.00,meteohub,2013-09-02 16:02:00,
2013-09-02 11:07:00,63.9,57.2,29.95,North,355,5.0,11.0,79,0.00,,,0.00,meteohub,2013-09-02 16:07:00,
2013-09-02 11:12:00,64.0,57.0,29.95,NNE,12,5.0,10.0,78,0.00,,,0.00,meteohub,2013-09-02 16:12:00,
2013-09-02 11:17:00,64.0,56.3,29.95,NNW,335,7.0,10.0,76,0.00,,,0.00,meteohub,2013-09-02 16:17:00,
2013-09-02 11:22:00,64.2,56.5,29.96,NW,314,7.0,9.0,76,0.00,,,0.00,meteohub,2013-09-02 16:22:00,
2013-09-02 11:27:00,64.6,56.8,29.96,NW,317,4.0,9.0,76,0.00,,,0.00,meteohub,2013-09-02 16:27:00,
2013-09-02 11:32:00,64.4,56.3,29.96,NW,325,3.0,9.0,75,0.00,,,0.00,meteohub,2013-09-02 16:32:00,
2013-09-02 11:37:00,64.0,55.9,29.96,North,351,7.0,7.0,75,0.00,,,0.00,meteohub,2013-09-02 16:37:00,
2013-09-02 11:42:00,64.0,56.7,29.96,NNW,345,5.0,12.0,77,0.00,,,0.00,meteohub,2013-09-02 16:42:00,
2013-09-02 11:47:00,64.0,56.3,29.96,NNW,327,4.0,12.0,76,0.00,,,0.00,meteohub,2013-09-02 16:47:00,
2013-09-02 11:52:00,64.0,56.3,29.96,North,355,7.0,11.0,76,0.00,,,0.00,meteohub,2013-09-02 16:52:00,
2013-09-02 11:57:00,64.6,56.5,29.96,NNW,338,4.0,12.0,75,0.00,,,0.00,meteohub,2013-09-02 16:57:00,
2013-09-02 12:02:00,64.8,55.9,29.96,NNW,342,7.0,12.0,73,0.00,,,0.00,meteohub,2013-09-02 17:02:00,
2013-09-02 12:07:00,64.8,57.0,29.96,North,9,7.0,12.0,76,0.00,,,0.00,meteohub,2013-09-02 17:07:00,
2013-09-02 12:12:00,64.6,56.8,29.96,North,0,4.0,11.0,76,0.00,,,0.00,meteohub,2013-09-02 17:12:00,
2013-09-02 12:17:00,64.6,56.8,29.96,NNW,336,7.0,11.0,76,0.00,,,0.00,meteohub,2013-09-02 17:17:00,
2013-09-02 12:22:00,64.4,56.3,29.96,NNW,327,4.0,10.0,75,0.00,,,0.00,meteohub,2013-09-02 17:22:00,
2013-09-02 12:27:00,64.6,56.5,29.96,North,0,6.0,11.0,75,0.00,,,0.00,meteohub,2013-09-02 17:27:00,
2013-09-02 12:32:00,64.6,56.8,29.96,NNW,339,4.0,11.0,76,0.00,,,0.00,meteohub,2013-09-02 17:32:00,
2013-09-02 12:37:00,64.4,56.3,29.96,North,351,3.0,11.0,75,0.00,,,0.00,meteohub,2013-09-02 17:37:00,
2013-09-02 12:42:00,64.4,56.3,29.96,NNW,344,5.0,10.0,75,0.00,,,0.00,meteohub,2013-09-02 17:42:00,
2013-09-02 12:47:00,64.6,56.1,29.96,NNW,344,5.0,10.0,74,0.00,,,0.00,meteohub,2013-09-02 17:47:00,
2013-09-02 12:52:00,64.8,55.9,29.96,NNW,329,5.0,10.0,73,0.00,,,0.00,meteohub,2013-09-02 17:52:00,
2013-09-02 12:57:00,64.8,56.3,29.96,NNW,336,3.0,9.0,74,0.00,,,0.00,meteohub,2013-09-02 17:57:00,
2013-09-02 13:02:00,64.9,56.1,29.96,North,350,6.0,9.0,73,0.00,,,0.00,meteohub,2013-09-02 18:02:00,
2013-09-02 13:07:00,64.9,56.1,29.96,NW,325,6.0,9.0,73,0.00,,,0.00,meteohub,2013-09-02 18:07:00,
2013-09-02 13:12:00,64.6,55.4,29.96,NW,323,4.0,9.0,72,0.00,,,0.00,meteohub,2013-09-02 18:12:00,
2013-09-02 13:17:00,64.8,55.9,29.96,North,355,6.0,9.0,73,0.00,,,0.00,meteohub,2013-09-02 18:17:00,
2013-09-02 13:22:00,65.1,56.3,29.96,NNW,343,8.0,12.0,73,0.00,,,0.00,meteohub,2013-09-02 18:22:00,
2013-09-02 13:27:00,65.1,55.4,29.96,NNW,342,3.0,12.0,71,0.00,,,0.00,meteohub,2013-09-02 18:27:00,
2013-09-02 13:32:00,65.7,55.9,29.96,NNW,348,5.0,12.0,71,0.00,,,0.00,meteohub,2013-09-02 18:32:00,
2013-09-02 13:37:00,65.8,55.4,29.96,NNW,329,8.0,9.0,69,0.00,,,0.00,meteohub,2013-09-02 18:37:00,
2013-09-02 13:42:00,65.7,55.6,29.96,NNW,344,7.0,12.0,70,0.00,,,0.00,meteohub,2013-09-02 18:42:00,
2013-09-02 13:47:00,65.7,55.9,29.96,NNW,335,4.0,12.0,71,0.00,,,0.00,meteohub,2013-09-02 18:47:00,
2013-09-02 13:52:00,65.8,55.4,29.96,NNW,336,4.0,12.0,69,0.00,,,0.00,meteohub,2013-09-02 18:52:00,
2013-09-02 13:57:00,66.0,56.7,29.96,North,0,5.0,11.0,72,0.00,,,0.00,meteohub,2013-09-02 18:57:00,
2013-09-02 14:02:00,66.0,55.6,29.96,North,350,7.0,11.0,69,0.00,,,0.00,meteohub,2013-09-02 19:02:00,
2013-09-02 14:07:00,65.8,56.1,29.95,NW,319,5.0,11.0,71,0.00,,,0.00,meteohub,2013-09-02 19:07:00,
2013-09-02 14:12:00,66.4,55.9,29.95,North,355,5.0,10.0,69,0.00,,,0.00,meteohub,2013-09-02 19:12:00,
2013-09-02 14:17:00,66.6,56.1,29.95,NNW,344,4.0,10.0,69,0.00,,,0.00,meteohub,2013-09-02 19:17:00,
2013-09-02 14:22:00,67.3,56.8,29.95,NW,326,4.0,9.0,69,0.00,,,0.00,meteohub,2013-09-02 19:22:00,
2013-09-02 14:27:00,66.6,56.1,29.95,NNW,333,0.0,11.0,69,0.00,,,0.00,meteohub,2013-09-02 19:27:00,
2013-09-02 14:32:00,66.4,56.3,29.95,NNW,345,8.0,11.0,70,0.00,,,0.00,meteohub,2013-09-02 19:32:00,
2013-09-02 14:37:00,66.9,55.9,29.96,NW,322,3.0,11.0,68,0.00,,,0.00,meteohub,2013-09-02 19:37:00,
2013-09-02 14:43:00,67.3,55.9,29.96,NW,313,3.0,11.0,67,0.00,,,0.00,meteohub,2013-09-02 19:43:00,
2013-09-02 14:48:00,67.3,55.9,29.95,NNW,347,7.0,11.0,67,0.00,,,0.00,meteohub,2013-09-02 19:48:00,
2013-09-02 14:53:00,66.4,55.0,29.95,North,351,7.0,12.0,67,0.00,,,0.00,meteohub,2013-09-02 19:53:00,
2013-09-02 14:58:00,66.4,55.0,29.95,NW,309,1.0,12.0,67,0.00,,,0.00,meteohub,2013-09-02 19:58:00,
2013-09-02 15:03:00,67.5,57.4,29.96,North,355,7.0,12.0,70,0.00,,,0.00,meteohub,2013-09-02 20:03:00,
2013-09-02 15:09:00,68.4,57.4,29.95,NNW,342,4.0,9.0,68,0.00,,,0.00,meteohub,2013-09-02 20:09:00,
2013-09-02 15:14:00,68.4,56.1,29.95,North,350,5.0,11.0,65,0.00,,,0.00,meteohub,2013-09-02 20:14:00,
2013-09-02 15:19:00,68.2,55.9,29.95,NNW,333,6.0,11.0,65,0.00,,,0.00,meteohub,2013-09-02 20:19:00,
2013-09-02 15:24:00,67.6,55.9,29.95,NNW,343,5.0,11.0,66,0.00,,,0.00,meteohub,2013-09-02 20:24:00,
2013-09-02 15:29:00,66.9,55.2,29.95,NW,323,4.0,11.0,66,0.00,,,0.00,meteohub,2013-09-02 20:29:00,
2013-09-02 15:34:00,67.5,56.1,29.95,NNW,346,5.0,11.0,67,0.00,,,0.00,meteohub,2013-09-02 20:34:00,
2013-09-02 15:39:00,68.4,56.1,29.95,NNW,341,7.0,11.0,65,0.00,,,0.00,meteohub,2013-09-02 20:39:00,
2013-09-02 15:45:00,67.8,56.1,29.95,North,355,3.0,12.0,66,0.00,,,0.00,meteohub,2013-09-02 20:45:00,
2013-09-02 15:50:00,68.2,56.3,29.95,NNW,348,1.0,12.0,66,0.00,,,0.00,meteohub,2013-09-02 20:50:00,
2013-09-02 15:55:00,68.7,56.5,29.95,North,0,3.0,10.0,65,0.00,,,0.00,meteohub,2013-09-02 20:55:00,
2013-09-02 16:00:00,69.3,56.1,29.95,West,270,4.0,10.0,63,0.00,,,0.00,meteohub,2013-09-02 21:00:00,
2013-09-02 16:05:00,69.4,56.3,29.95,North,355,4.0,10.0,63,0.00,,,0.00,meteohub,2013-09-02 21:05:00,
2013-09-02 16:11:00,69.3,56.1,29.95,NNW,339,6.0,10.0,63,0.00,,,0.00,meteohub,2013-09-02 21:11:00,
2013-09-02 16:16:00,68.5,56.3,29.95,NNW,332,3.0,10.0,65,0.00,,,0.00,meteohub,2013-09-02 21:16:00,
2013-09-02 16:21:00,68.4,56.1,29.95,NNW,336,5.0,9.0,65,0.00,,,0.00,meteohub,2013-09-02 21:21:00,
2013-09-02 16:26:00,67.5,55.2,29.95,NNW,336,7.0,12.0,65,0.00,,,0.00,meteohub,2013-09-02 21:26:00,
2013-09-02 16:31:00,67.1,55.8,29.95,North,349,3.0,12.0,67,0.00,,,0.00,meteohub,2013-09-02 21:31:00,
2013-09-02 16:37:00,67.5,55.2,29.95,West,278,1.0,12.0,65,0.00,,,0.00,meteohub,2013-09-02 21:37:00,
2013-09-02 16:42:00,67.8,55.6,29.95,NNW,344,2.0,11.0,65,0.00,,,0.00,meteohub,2013-09-02 21:42:00,
2013-09-02 16:47:00,67.8,55.6,29.95,NW,310,0.0,11.0,65,0.00,,,0.00,meteohub,2013-09-02 21:47:00,
2013-09-02 16:52:00,67.6,55.0,29.95,NW,319,1.0,11.0,64,0.00,,,0.00,meteohub,2013-09-02 21:52:00,
2013-09-02 16:57:00,67.8,56.1,29.95,NNW,338,4.0,9.0,66,0.00,,,0.00,meteohub,2013-09-02 21:57:00,
2013-09-02 17:02:00,68.2,55.9,29.95,NNW,327,2.0,11.0,65,0.00,,,0.00,meteohub,2013-09-02 22:02:00,
2013-09-02 17:07:00,67.6,55.4,29.96,NNW,340,3.0,11.0,65,0.00,,,0.00,meteohub,2013-09-02 22:07:00,
2013-09-02 17:12:00,67.5,55.2,29.95,NNW,328,0.0,7.0,65,0.00,,,0.00,meteohub,2013-09-02 22:12:00,
2013-09-02 17:17:00,67.5,55.8,29.95,North,355,8.0,11.0,66,0.00,,,0.00,meteohub,2013-09-02 22:17:00,
2013-09-02 17:22:00,67.8,55.2,29.95,NNW,330,7.0,11.0,64,0.00,,,0.00,meteohub,2013-09-02 22:22:00,
2013-09-02 17:27:00,67.1,54.9,29.95,NW,325,4.0,11.0,65,0.00,,,0.00,meteohub,2013-09-02 22:27:00,
2013-09-02 17:32:00,66.6,55.2,29.95,North,5,8.0,11.0,67,0.00,,,0.00,meteohub,2013-09-02 22:32:00,
2013-09-02 17:37:00,66.4,55.0,29.95,NNW,348,12.0,12.0,67,0.00,,,0.00,meteohub,2013-09-02 22:37:00,
2013-09-02 17:42:00,66.0,54.7,29.96,NNW,338,6.0,13.0,67,0.00,,,0.00,meteohub,2013-09-02 22:42:00,
2013-09-02 17:47:00,66.0,55.2,29.96,NNW,344,8.0,13.0,68,0.00,,,0.00,meteohub,2013-09-02 22:47:00,
2013-09-02 17:52:00,65.8,55.0,29.96,NNW,343,5.0,13.0,68,0.00,,,0.00,meteohub,2013-09-02 22:52:00,
2013-09-02 17:57:00,65.7,54.3,29.96,North,355,7.0,10.0,67,0.00,,,0.00,meteohub,2013-09-02 22:57:00,
2013-09-02 18:02:00,65.7,54.9,29.96,WNW,299,6.0,11.0,68,0.00,,,0.00,meteohub,2013-09-02 23:02:00,
2013-09-02 18:07:00,65.5,55.0,29.96,NNW,344,6.0,11.0,69,0.00,,,0.00,meteohub,2013-09-02 23:07:00,
2013-09-02 18:13:00,65.5,54.7,29.96,NNW,335,5.0,11.0,68,0.00,,,0.00,meteohub,2013-09-02 23:13:00,
2013-09-02 18:18:00,65.5,55.0,29.96,NNW,338,7.0,9.0,69,0.00,,,0.00,meteohub,2013-09-02 23:18:00,
2013-09-02 18:23:00,65.3,54.9,29.96,NW,325,10.0,12.0,69,0.00,,,0.00,meteohub,2013-09-02 23:23:00,
2013-09-02 18:28:00,64.9,54.1,29.96,North,350,5.0,12.0,68,0.00,,,0.00,meteohub,2013-09-02 23:28:00,
2013-09-02 18:33:00,64.8,54.3,29.97,NNW,342,3.0,12.0,69,0.00,,,0.00,meteohub,2013-09-02 23:33:00,
2013-09-02 18:38:00,64.4,54.3,29.97,NNW,333,3.0,12.0,70,0.00,,,0.00,meteohub,2013-09-02 23:38:00,
2013-09-02 18:44:00,64.2,53.8,29.97,NNW,341,5.0,10.0,69,0.00,,,0.00,meteohub,2013-09-02 23:44:00,
2013-09-02 18:49:00,63.9,54.0,29.97,NNW,339,6.0,8.0,70,0.00,,,0.00,meteohub,2013-09-02 23:49:00,
2013-09-02 18:54:00,63.5,53.6,29.97,NNW,347,6.0,9.0,70,0.00,,,0.00,meteohub,2013-09-02 23:54:00,
2013-09-02 18:59:00,63.1,53.6,29.97,NNW,344,3.0,9.0,71,0.00,,,0.00,meteohub,2013-09-02 23:59:00,
2013-09-02 19:05:00,62.8,53.6,29.97,NNW,333,5.0,9.0,72,0.00,,,0.00,meteohub,2013-09-03 00:05:00,
2013-09-02 19:10:00,62.4,53.6,29.96,NNW,334,3.0,7.0,73,0.00,,,0.00,meteohub,2013-09-03 00:10:00,
2013-09-02 19:15:00,62.1,53.2,29.97,NNW,342,5.0,7.0,73,0.00,,,0.00,meteohub,2013-09-03 00:15:00,
2013-09-02 19:20:00,61.9,53.4,29.97,NNW,342,3.0,7.0,74,0.00,,,0.00,meteohub,2013-09-03 00:20:00,
2013-09-02 19:25:00,61.3,53.1,29.97,NNW,342,5.0,7.0,74,0.00,,,0.00,meteohub,2013-09-03 00:25:00,
2013-09-02 19:31:00,61.0,53.1,29.97,NNW,342,2.0,6.0,75,0.00,,,0.00,meteohub,2013-09-03 00:31:00,
2013-09-02 19:36:00,60.6,53.1,29.97,NNW,342,3.0,5.0,76,0.00,,,0.00,meteohub,2013-09-03 00:36:00,
2013-09-02 19:41:00,60.3,52.7,29.98,NNW,342,1.0,6.0,76,0.00,,,0.00,meteohub,2013-09-03 00:41:00,
2013-09-02 19:46:00,60.1,52.5,29.97,NNW,342,3.0,6.0,76,0.00,,,0.00,meteohub,2013-09-03 00:46:00,
2013-09-02 19:51:00,60.1,52.5,29.98,North,350,3.0,7.0,76,0.00,,,0.00,meteohub,2013-09-03 00:51:00,
2013-09-02 19:57:00,60.1,52.5,29.98,North,350,4.0,7.0,76,0.00,,,0.00,meteohub,2013-09-03 00:57:00,
2013-09-02 20:02:00,59.9,52.7,29.98,North,350,2.0,7.0,77,0.00,,,0.00,meteohub,2013-09-03 01:02:00,
2013-09-02 20:07:00,59.5,52.3,29.98,North,350,3.0,7.0,77,0.00,,,0.00,meteohub,2013-09-03 01:07:00,
2013-09-02 20:12:00,59.4,52.5,29.98,North,350,1.0,5.0,78,0.00,,,0.00,meteohub,2013-09-03 01:12:00,
2013-09-02 20:17:00,58.8,52.0,29.98,North,350,0.0,5.0,78,0.00,,,0.00,meteohub,2013-09-03 01:17:00,
2013-09-02 20:22:00,58.5,52.0,29.98,North,350,1.0,5.0,79,0.00,,,0.00,meteohub,2013-09-03 01:22:00,
2013-09-02 20:27:00,58.3,52.2,29.99,North,350,0.0,3.0,80,0.00,,,0.00,meteohub,2013-09-03 01:27:00,
2013-09-02 20:32:00,58.3,52.2,29.99,North,350,0.0,2.0,80,0.00,,,0.00,meteohub,2013-09-03 01:32:00,
2013-09-02 20:37:00,57.9,51.8,29.99,North,350,0.0,2.0,80,0.00,,,0.00,meteohub,2013-09-03 01:37:00,
2013-09-02 20:42:00,57.7,51.6,29.99,North,350,0.0,2.0,80,0.00,,,0.00,meteohub,2013-09-03 01:42:00,
2013-09-02 20:47:00,57.4,51.6,30.00,North,350,0.0,2.0,81,0.00,,,0.00,meteohub,2013-09-03 01:47:00,
2013-09-02 20:52:00,57.0,51.6,29.99,North,350,0.0,2.0,82,0.00,,,0.00,meteohub,2013-09-03 01:52:00,
2013-09-02 20:57:00,56.8,51.4,29.99,North,350,0.0,0.0,82,0.00,,,0.00,meteohub,2013-09-03 01:57:00,
2013-09-02 21:02:00,56.7,51.6,30.00,North,350,0.0,0.0,83,0.00,,,0.00,meteohub,2013-09-03 02:02:00,
2013-09-02 21:07:00,56.5,51.4,30.00,North,350,0.0,0.0,83,0.00,,,0.00,meteohub,2013-09-03 02:07:00,
2013-09-02 21:12:00,56.1,51.1,30.00,North,350,0.0,0.0,83,0.00,,,0.00,meteohub,2013-09-03 02:12:00,
2013-09-02 21:18:00,55.9,51.3,30.00,North,350,0.0,0.0,84,0.00,,,0.00,meteohub,2013-09-03 02:18:00,
2013-09-02 21:23:00,55.9,51.3,30.00,North,350,0.0,0.0,84,0.00,,,0.00,meteohub,2013-09-03 02:23:00,
2013-09-02 21:28:00,55.8,51.1,30.00,North,350,0.0,0.0,84,0.00,,,0.00,meteohub,2013-09-03 02:28:00,
2013-09-02 21:33:00,55.6,51.1,30.00,North,350,0.0,0.0,85,0.00,,,0.00,meteohub,2013-09-03 02:33:00,
2013-09-02 21:38:00,55.2,50.7,30.00,North,350,0.0,0.0,85,0.00,,,0.00,meteohub,2013-09-03 02:38:00,
2013-09-02 21:43:00,55.0,50.5,30.00,North,350,0.0,0.0,85,0.00,,,0.00,meteohub,2013-09-03 02:43:00,
2013-09-02 21:49:00,54.9,50.4,30.00,North,350,0.0,0.0,85,0.00,,,0.00,meteohub,2013-09-03 02:49:00,
2013-09-02 21:54:00,54.7,50.5,30.00,North,350,1.0,0.0,86,0.00,,,0.00,meteohub,2013-09-03 02:54:00,
2013-09-02 21:59:00,54.7,50.5,30.00,North,350,0.0,1.0,86,0.00,,,0.00,meteohub,2013-09-03 02:59:00,
2013-09-02 22:04:00,54.9,50.7,30.00,North,350,1.0,2.0,86,0.00,,,0.00,meteohub,2013-09-03 03:04:00,
2013-09-02 22:10:00,54.3,50.2,30.00,North,350,0.0,4.0,86,0.00,,,0.00,meteohub,2013-09-03 03:10:00,
2013-09-02 22:15:00,54.1,50.0,30.01,North,350,0.0,4.0,86,0.00,,,0.00,meteohub,2013-09-03 03:15:00,
2013-09-02 22:20:00,53.8,49.6,30.00,North,350,0.0,3.0,86,0.00,,,0.00,meteohub,2013-09-03 03:20:00,
2013-09-02 22:25:00,53.4,49.1,30.00,North,350,0.0,0.0,85,0.00,,,0.00,meteohub,2013-09-03 03:25:00,
2013-09-02 22:30:00,53.2,49.1,30.00,North,350,0.0,0.0,86,0.00,,,0.00,meteohub,2013-09-03 03:30:00,
2013-09-02 22:36:00,52.9,48.7,30.00,North,350,0.0,0.0,86,0.00,,,0.00,meteohub,2013-09-03 03:36:00,
2013-09-02 22:41:00,52.7,48.6,30.00,North,350,0.0,0.0,86,0.00,,,0.00,meteohub,2013-09-03 03:41:00,
2013-09-02 22:46:00,52.5,48.7,30.00,North,350,0.0,0.0,87,0.00,,,0.00,meteohub,2013-09-03 03:46:00,
2013-09-02 22:51:00,52.3,48.9,30.01,North,350,0.0,0.0,88,0.00,,,0.00,meteohub,2013-09-03 03:51:00,
2013-09-02 22:56:00,52.3,48.9,30.00,North,350,0.0,0.0,88,0.00,,,0.00,meteohub,2013-09-03 03:56:00,
2013-09-02 23:01:00,52.2,48.7,30.01,North,350,0.0,0.0,88,0.00,,,0.00,meteohub,2013-09-03 04:01:00,
2013-09-02 23:02:00,52.2,48.7,30.01,North,350,0.0,0.0,88,0.00,,,0.00,meteohub,2013-09-03 04:02:00,
2013-09-02 23:03:00,52.2,48.7,30.01,North,350,0.0,0.0,88,0.00,,,0.00,meteohub,2013-09-03 04:03:00,
2013-09-02 23:05:00,52.0,48.6,30.01,North,350,0.0,0.0,88,0.00,,,0.00,meteohub,2013-09-03 04:05:00,
2013-09-02 23:10:00,52.0,48.9,30.01,North,350,1.0,0.0,89,0.00,,,0.00,meteohub,2013-09-03 04:10:00,
2013-09-02 23:11:00,52.0,48.9,30.01,North,350,0.0,0.0,89,0.00,,,0.00,meteohub,2013-09-03 04:11:00,
2013-09-02 23:16:00,51.8,48.7,30.01,North,350,0.0,1.0,89,0.00,,,0.00,meteohub,2013-09-03 04:16:00,
2013-09-02 23:21:00,51.6,48.6,30.01,North,350,0.0,1.0,89,0.00,,,0.00,meteohub,2013-09-03 04:21:00,
2013-09-02 23:27:00,51.6,48.7,30.01,North,350,0.0,1.0,90,0.00,,,0.00,meteohub,2013-09-03 04:27:00,
2013-09-02 23:32:00,51.4,48.6,30.01,North,350,0.0,0.0,90,0.00,,,0.00,meteohub,2013-09-03 04:32:00,
2013-09-02 23:37:00,51.4,48.6,30.01,North,350,0.0,1.0,90,0.00,,,0.00,meteohub,2013-09-03 04:37:00,
2013-09-02 23:42:00,51.4,48.9,30.01,North,350,0.0,1.0,91,0.00,,,0.00,meteohub,2013-09-03 04:42:00,
2013-09-02 23:47:00,51.4,48.9,30.00,North,350,0.0,1.0,91,0.00,,,0.00,meteohub,2013-09-03 04:47:00,
2013-09-02 23:52:00,51.4,48.9,30.00,North,350,0.0,1.0,91,0.00,,,0.00,meteohub,2013-09-03 04:52:00,
2013-09-02 23:57:00,51.4,48.9,30.00,North,350,0.0,1.0,91,0.00,,,0.00,meteohub,2013-09-03 04:57:00,